Temperature
16 18 19 19 19 19 18 17 16 17 18 19 19 19 21 23 23 23 23 22 22 22 21 21 20 20 19 19 18 17 17 16 16 16 16 15 15 15 15 15 15 15 15 15
17 18 18 18 18 19 19 18 18 18 18 19 20 20 21 22 23 23 23 22 22 22 21 21 21 20 19 19 18 17 17 16 16 16 16 15 15 15 15 15 15 15 15 14
15 16 16 16 18 19 19 19 19 18 19 19 19 20 21 23 23 23 23 22 22 21 21 20 20 19 19 19 18 17 17 16 16 16 16 15 15 15 15 15 15 15 14 14
14 15 15 17 17 19 19 19 19 19 19 20 19 21 22 23 23 22 22 22 21 20 19 19 18 18 18 18 17 17 17 16 16 15 15 15 15 15 15 15 15 14 14 14
13 14 15 17 18 18 18 19 20 20 20 20 21 20 20 22 22 22 21 21 20 19 18 18 17 18 18 17 17 17 17 16 16 16 15 15 15 15 15 14 14 14 14 13
13 14 15 17 19 19 19 19 20 20 20 20 19 17 18 20 21 21 20 20 19 18 17 16 16 16 16 16 16 16 16 16 16 15 15 15 15 14 14 14 14 13 13 13
13 14 15 17 18 19 19 19 21 22 22 21 19 20 21 20 20 20 20 19 18 17 16 16 15 15 15 15 15 15 15 15 15 15 14 14 14 14 13 13 13 13 13 12
13 13 15 18 18 19 20 21 22 23 23 23 22 22 21 20 19 19 19 17 16 16 15 15 15 14 14 14 13 13 13 13 13 13 13 13 13 13 13 13 12 12 12 12
14 14 16 17 18 20 22 23 23 23 23 22 22 21 20 19 19 18 17 16 16 15 15 15 14 14 14 13 13 12 12 12 12 12 12 12 12 12 12 12 12 12 12 12
14 15 15 16 18 19 22 23 23 23 22 22 21 21 20 19 18 17 16 16 15 15 15 14 14 14 13 13 12 12 11 11 11 11 11 11 12 12 12 12 12 12 12 12
13 13 14 16 16 18 21 22 23 22 22 22 21 21 20 19 18 17 16 16 16 15 15 14 14 14 13 12 12 11 11 11 10 10 10 11 11 11 11 11 12 12 12 12
12 13 13 14 15 17 19 21 22 22 22 21 21 21 20 19 18 17 16 16 16 15 15 14 14 13 13 12 12 11 11 11 10 10 10 10 11 11 11 11 11 11 11 11
13 13 13 14 15 17 18 20 22 22 22 21 21 21 20 19 18 17 16 16 16 16 15 14 14 13 13 12 12 11 11 11 11 10 10 10 11 11 11 11 11 11 11 11
13 12 13 14 15 16 18 20 21 22 22 21 21 20 20 19 18 17 17 17 16 15 15 14 14 13 13 12 12 11 11 11 11 11 11 10 10 10 10 10 11 11 11 11
13 13 14 14 15 17 18 19 21 22 22 21 21 20 20 19 18 17 17 17 16 16 15 14 14 13 13 12 12 11 11 11 11 11 11 11 11 10 10 10 10 10 11 11
13 14 14 15 16 17 18 19 20 22 22 22 21 21 20 19 19 18 17 17 16 16 15 15 14 13 13 12 12 11 11 11 11 11 11 11 11 11 11 11 10 10 10 10
12 13 14 15 16 17 18 19 20 21 22 22 21 21 20 19 18 18 18 17 17 16 16 15 14 13 13 12 12 11 11 11 11 11 11 11 11 11 11 11 10 10 10 10
11 12 13 14 15 16 17 19 20 21 22 22 22 21 20 19 18 18 18 17 17 16 15 15 14 13 12 12 12 11 10 10 10 11 11 11 11 10 10 10 10 10 10 10
10 12 14 15 16 16 17 19 20 21 21 22 21 21 20 19 19 18 18 17 17 16 16 15 14 13 12 12 11 11 10 10 10 10 10 10 10 10 10 10 10 10 10 10
9 11 13 15 17 17 18 19 20 21 21 21 21 21 20 19 19 19 18 18 17 17 16 14 13 13 12 11 11 10 10 10 10 10 10 10 10 10 10 10 10 10 10 10
8 9 12 16 17 18 19 20 20 21 21 21 21 21 20 20 19 19 18 18 17 16 15 14 13 13 12 11 11 10 10 10 10 10 10 10 10 10 10 10 10 10 10 10
7 9 12 16 18 19 20 20 20 21 21 21 21 21 20 20 19 19 19 18 18 16 15 14 13 12 12 11 11 10 10 10 10 10 10 10 10 10 10 10 10 10 10 10
8 9 12 16 19 20 20 21 21 21 20 20 21 21 20 20 19 19 19 18 17 16 15 14 13 12 12 11 11 10 10 10 10 10 10 10 10 10 10 10 10 10 10 9
8 10 13 16 19 20 20 21 21 20 20 20 20 21 20 20 19 19 19 18 17 16 14 13 13 12 11 11 10 10 10 9 9 9 9 9 9 9 9 9 9 9 9 9
9 10 13 16 18 20 21 21 21 20 20 20 20 20 20 20 20 19 18 17 16 15 14 13 12 12 11 10 10 9 9 9 9 9 9 9 9 9 9 9 9 9 9 9
9 9 11 14 17 19 20 20 20 20 20 20 20 20 20 20 19 19 18 17 16 14 14 13 12 11 11 10 9 9 9 9 9 9 9 9 9 9 9 9 9 9 9 8
9 10 11 14 17 19 20 20 20 20 20 20 20 20 19 19 19 18 17 16 15 14 13 13 12 11 10 10 9 9 9 9 9 9 9 9 9 9 9 9 9 9 8 8
Wind_Speed
8 11 8 7 9 8 8 9 10 10 10 12 11 11 12 11 8 8 10 10 12 12 11 10 10 10 10 10 9 9 10 10 11 9 8 8 7 7 6 6 6 5 4 3
7 9 7 9 11 11 10 9 10 10 11 12 11 8 9 9 8 9 11 12 11 11 10 10 11 11 10 10 10 10 11 11 10 9 9 8 8 7 6 6 5 5 4 3
7 7 7 10 11 12 11 10 10 12 13 10 9 8 8 7 6 8 9 8 8 6 6 6 7 9 11 11 10 11 11 11 10 10 9 9 8 7 6 5 4 3 3 2
3 1 8 10 7 10 13 14 13 11 11 9 9 6 5 6 8 8 8 8 7 6 4 1 1 5 8 9 10 11 11 11 11 10 10 9 8 8 7 4 4 3 2 2
3 3 8 12 10 5 7 9 10 10 7 6 6 4 3 0 7 8 8 8 6 6 6 5 5 2 3 5 7 9 10 10 11 11 10 10 9 8 6 5 4 3 3 4
3 1 5 12 10 6 2 5 7 5 6 7 8 4 4 2 6 9 9 8 8 7 7 7 5 6 7 5 3 4 6 7 8 8 9 10 10 7 5 5 5 4 4 4
3 3 8 15 12 5 1 5 3 4 6 7 7 7 7 9 8 8 9 9 8 8 7 6 6 8 9 7 5 2 3 4 5 6 6 7 6 5 5 5 5 4 4 4
4 4 9 7 7 2 5 3 3 5 5 5 4 7 10 11 10 10 9 8 8 8 6 5 7 9 8 5 3 4 5 5 4 3 3 4 5 5 5 6 5 4 3 3
4 7 11 12 13 14 6 4 4 4 5 7 7 8 8 9 10 9 8 7 6 7 6 4 5 7 7 4 4 5 5 3 2 1 2 3 5 5 4 5 4 4 4 4
5 8 15 18 16 13 5 5 5 5 6 7 8 9 10 10 9 9 7 7 6 6 5 3 3 4 5 5 5 5 4 3 2 1 2 2 3 4 5 5 4 4 4 4
7 9 15 15 19 17 10 1 4 3 3 5 7 9 12 11 10 9 7 6 6 7 6 6 4 4 4 4 5 4 3 2 1 1 1 1 2 2 3 3 4 5 5 5
6 7 10 19 23 23 17 7 3 3 1 1 5 9 11 11 10 10 8 7 6 6 6 5 5 5 4 4 4 4 2 1 1 1 2 3 4 4 7 5 4 3 3 3
9 13 18 23 24 21 16 11 5 5 4 3 4 8 11 9 10 10 9 8 8 7 6 5 6 6 5 5 5 4 3 2 2 2 2 3 3 4 3 3 6 6 5 4
17 18 24 24 21 21 19 16 9 6 5 6 6 8 10 9 9 11 11 10 8 6 6 7 7 6 6 6 5 5 3 2 2 2 3 3 3 4 4 4 2 0 3 4
19 18 20 22 22 20 16 12 8 6 5 5 6 9 12 12 13 12 11 8 7 7 7 8 8 6 6 7 6 5 3 2 2 2 2 3 3 3 3 4 4 3 2 2
16 17 18 19 19 18 14 12 9 8 6 6 8 10 12 13 13 11 9 8 8 8 9 9 8 7 7 7 6 4 3 4 3 2 2 1 1 2 3 4 4 4 4 4
16 18 17 17 18 16 13 11 10 9 7 9 11 11 11 11 10 9 8 8 9 9 9 9 8 7 7 7 6 4 3 2 3 2 2 2 2 3 3 4 4 4 3 4
18 19 18 17 17 17 15 12 10 8 7 9 10 11 12 12 12 10 8 7 7 6 6 8 9 8 7 6 5 4 3 3 2 2 2 3 3 2 3 3 4 4 2 3
21 17 18 20 19 16 14 12 11 8 7 7 11 13 13 13 11 9 8 9 9 8 7 8 12 9 7 6 6 3 3 3 2 2 3 4 3 3 3 3 3 3 4 3
25 20 17 18 17 15 13 12 11 8 7 8 11 11 11 10 10 10 10 10 8 7 10 11 10 8 7 6 6 4 3 3 4 3 3 3 3 3 3 3 3 3 3 3
27 26 22 17 16 14 13 12 10 9 8 9 11 13 13 11 10 11 10 7 5 8 11 13 8 7 6 6 6 4 4 4 4 4 3 3 3 3 3 3 3 3 2 2
26 26 25 18 14 13 12 10 9 9 7 8 11 11 11 10 10 9 7 6 9 14 11 7 7 9 9 8 5 5 5 4 4 3 3 3 3 3 3 3 2 2 2 2
24 24 25 20 13 12 10 8 8 7 8 9 10 12 13 11 11 9 7 6 10 15 10 8 11 14 13 7 5 5 5 5 4 4 3 3 3 3 3 4 3 3 2 2
24 25 25 20 10 6 7 7 7 6 7 8 10 12 13 10 6 4 7 13 15 15 10 12 17 16 11 6 6 5 5 5 4 4 4 3 3 4 4 4 4 3 3 4
23 24 24 20 10 5 5 4 4 4 5 5 7 9 10 9 8 9 10 12 16 15 10 14 18 15 8 6 6 6 5 5 4 4 4 4 4 4 4 4 4 4 3 3
21 20 19 17 12 7 3 4 5 5 6 6 6 6 7 8 11 11 11 12 13 14 11 8 9 9 6 6 6 6 5 5 5 4 4 4 4 4 4 4 4 3 3 3
19 18 16 15 13 8 3 4 6 6 8 10 9 6 9 10 11 11 12 11 10 10 9 8 7 6 6 7 6 6 5 4 4 4 4 4 4 4 4 5 3 3 3 3
Wind_Direction
251 262 266 266 268 259 225 211 216 236 237 249 245 244 251 256 251 210 195 192 189 191 197 197 193 190 189 188 183 175 173 181 189 189 188 189 195 203 208 210 206 194 179 174
275 273 287 283 270 265 258 236 227 234 245 247 252 249 251 253 238 207 198 197 196 198 199 199 198 195 192 193 191 182 186 193 193 189 191 197 202 204 206 205 192 173 163 159
267 285 313 276 250 250 249 232 222 234 239 243 251 238 233 238 213 192 184 183 187 191 198 208 211 201 199 201 193 191 199 200 195 193 196 199 195 188 190 185 171 166 165 172
247 309 256 258 250 245 257 261 244 235 234 227 221 218 222 190 150 134 124 120 119 120 117 117 222 212 206 198 194 199 202 200 195 193 195 191 184 183 182 172 175 187 215 230
165 245 278 286 271 235 235 267 257 234 218 178 153 91 2 182 133 132 128 127 121 115 104 72 42 42 132 174 193 199 202 200 194 191 188 184 187 188 182 176 188 204 222 228
138 198 264 267 279 321 274 288 295 185 171 160 135 132 224 182 113 113 116 117 115 108 91 71 51 68 78 88 131 193 208 202 190 185 184 186 190 188 179 179 195 206 220 215
153 212 262 267 288 315 166 260 319 116 141 151 174 196 173 140 127 125 121 117 110 96 82 73 78 82 76 72 75 93 113 135 153 168 181 189 189 182 178 180 187 201 209 210
167 212 252 297 338 267 223 231 109 103 125 143 157 135 135 140 140 134 124 121 114 104 96 89 96 96 89 81 78 83 84 91 109 137 172 185 179 181 178 175 181 194 203 224
213 237 278 317 308 294 251 167 140 127 137 135 136 149 151 151 149 141 136 140 136 129 123 111 113 117 116 134 123 102 91 86 87 123 165 171 177 180 173 170 174 192 198 219
288 284 305 313 315 310 263 162 160 163 161 155 164 169 164 160 155 147 148 156 153 146 154 176 164 140 143 146 130 118 123 134 136 145 181 194 186 173 168 173 183 196 203 215
305 306 318 323 332 328 315 196 140 152 183 178 168 171 171 168 162 160 164 169 164 169 190 210 191 171 162 145 121 110 116 132 141 141 128 121 122 129 173 185 189 194 208 203
266 284 300 301 311 317 313 288 186 153 157 192 166 169 167 166 163 164 171 175 179 189 203 214 186 178 174 152 130 117 92 101 142 143 123 119 115 85 53 64 80 132 158 168
257 280 287 290 298 303 306 291 232 186 190 187 166 160 159 157 162 166 176 184 193 198 194 181 166 171 176 161 139 131 132 145 161 155 146 144 146 143 130 62 46 46 52 69
277 282 283 286 292 299 302 295 264 218 199 180 165 154 152 148 157 171 187 198 196 179 168 162 160 172 178 159 142 137 135 139 151 160 163 165 170 174 170 168 171 78 37 56
265 263 268 279 286 291 295 292 272 244 215 184 163 157 157 159 171 186 197 196 174 164 166 162 161 169 162 148 142 145 146 155 162 172 171 170 174 175 176 174 166 155 145 104
275 273 272 276 281 288 293 294 272 249 223 195 177 174 171 170 176 186 191 176 166 178 178 169 167 166 152 143 144 150 169 182 164 161 159 141 143 151 157 160 160 164 173 170
278 272 271 274 280 286 286 289 280 259 225 197 190 177 165 162 168 181 190 187 181 178 170 165 161 153 145 143 146 155 167 183 168 150 159 150 130 128 135 144 158 171 182 182
283 265 261 265 275 281 283 287 285 265 228 207 180 162 165 170 178 188 185 164 147 143 157 155 147 142 139 140 140 144 154 166 171 177 167 157 148 139 135 141 155 156 144 153
318 289 267 258 260 264 268 271 270 258 233 190 171 175 179 181 181 173 156 152 154 160 169 157 147 141 140 143 135 131 146 147 136 126 134 144 139 132 134 141 149 154 156 157
330 317 293 265 254 254 258 260 257 248 224 187 178 177 176 178 171 161 161 172 180 170 159 155 148 145 147 145 130 121 129 134 132 129 127 136 143 144 143 150 155 158 166 181
329 325 312 282 257 250 248 249 245 238 220 184 178 183 183 176 166 159 161 176 178 148 151 150 148 147 146 144 129 120 121 124 127 133 135 137 139 145 152 157 162 172 182 196
327 325 320 300 260 248 246 239 229 223 207 189 187 179 166 162 163 162 167 165 155 151 148 144 143 151 152 141 129 128 128 128 125 125 128 130 131 135 141 145 148 160 170 187
323 322 321 311 269 243 242 231 218 206 195 185 177 171 168 168 165 161 165 150 148 150 145 146 150 149 143 134 131 130 131 130 128 128 130 129 127 125 123 122 116 106 99 96
323 323 322 316 288 237 229 230 215 201 188 177 175 170 161 152 147 139 131 143 147 140 141 150 149 145 136 130 130 129 132 132 131 129 123 114 111 111 112 112 105 94 89 86
321 321 323 323 311 271 239 215 167 157 147 147 154 156 155 153 150 143 137 143 145 137 139 155 153 144 134 134 136 138 139 143 142 137 133 128 121 115 112 109 108 106 102 95
319 319 318 314 305 284 235 165 155 150 137 128 124 122 115 112 121 129 132 137 140 139 141 145 143 134 133 139 142 144 144 142 135 134 139 137 135 132 129 127 119 117 115 109
315 318 321 325 328 318 254 171 157 156 151 144 135 127 127 128 129 131 133 137 139 140 142 141 138 135 139 145 147 150 151 148 144 141 138 136 136 135 136 132 129 125 121 111
Height
1484 1478 1476 1475 1472 1470 1475 1478 1484 1476 1470 1462 1457 1455 1452 1449 1448 1447 1449 1450 1452 1454 1456 1457 1458 1460 1462 1464 1466 1468 1470 1472 1474 1477 1480 1482 1484 1486 1488 1490 1492 1493 1495 1496
1482 1475 1474 1473 1468 1466 1465 1464 1466 1464 1461 1450 1448 1448 1447 1445 1444 1443 1444 1446 1449 1451 1453 1454 1456 1457 1459 1461 1463 1465 1466 1469 1471 1474 1477 1479 1481 1484 1486 1487 1489 1490 1491 1492
1488 1479 1476 1476 1462 1458 1456 1452 1454 1456 1450 1444 1444 1443 1442 1441 1440 1439 1441 1444 1447 1450 1452 1453 1454 1455 1456 1457 1459 1461 1463 1465 1468 1470 1473 1475 1478 1480 1482 1484 1486 1487 1487 1488
1488 1484 1489 1465 1450 1448 1447 1443 1440 1439 1437 1437 1438 1439 1439 1438 1438 1438 1441 1444 1447 1449 1450 1450 1451 1452 1453 1454 1455 1457 1458 1460 1463 1465 1468 1471 1473 1476 1478 1480 1482 1483 1484 1484
1487 1488 1479 1459 1445 1444 1445 1441 1431 1430 1431 1433 1435 1438 1439 1438 1438 1440 1443 1445 1447 1448 1448 1448 1449 1449 1449 1449 1451 1453 1454 1456 1458 1461 1463 1466 1469 1471 1474 1477 1478 1479 1479 1480
1484 1487 1483 1457 1439 1439 1442 1442 1427 1425 1428 1431 1434 1443 1441 1439 1440 1441 1443 1445 1446 1447 1447 1447 1447 1447 1447 1447 1448 1449 1451 1453 1455 1457 1459 1462 1464 1468 1471 1473 1474 1475 1475 1476
1481 1483 1473 1447 1440 1441 1450 1445 1429 1427 1428 1430 1432 1434 1434 1436 1439 1441 1443 1444 1445 1446 1446 1446 1446 1446 1446 1446 1447 1447 1448 1450 1451 1453 1456 1458 1461 1464 1467 1469 1470 1471 1472 1472
1478 1481 1469 1441 1443 1442 1439 1432 1430 1429 1430 1430 1430 1430 1432 1434 1437 1440 1442 1443 1445 1445 1445 1446 1446 1446 1446 1446 1447 1447 1447 1448 1449 1451 1453 1456 1458 1460 1462 1464 1465 1467 1468 1469
1470 1467 1450 1447 1447 1441 1435 1432 1431 1430 1430 1430 1430 1430 1432 1434 1437 1439 1441 1443 1444 1445 1445 1446 1447 1447 1447 1447 1447 1447 1447 1448 1448 1449 1450 1452 1454 1456 1458 1460 1462 1463 1465 1466
1465 1458 1452 1448 1443 1438 1434 1431 1430 1430 1430 1430 1430 1430 1432 1434 1436 1439 1441 1442 1443 1444 1445 1446 1447 1447 1447 1447 1447 1446 1446 1446 1447 1447 1448 1449 1451 1453 1455 1457 1459 1460 1461 1462
1468 1460 1452 1444 1443 1440 1436 1432 1430 1430 1430 1429 1429 1429 1430 1432 1435 1438 1440 1442 1443 1444 1445 1446 1446 1447 1447 1447 1446 1445 1445 1445 1445 1446 1446 1447 1449 1451 1453 1455 1456 1457 1458 1460
1468 1462 1461 1451 1444 1442 1439 1433 1430 1429 1428 1428 1427 1427 1428 1431 1434 1437 1439 1441 1442 1443 1444 1445 1446 1446 1446 1446 1446 1445 1444 1444 1444 1445 1445 1447 1448 1450 1451 1453 1454 1455 1456 1457
1464 1460 1458 1451 1446 1442 1439 1434 1430 1428 1427 1427 1427 1427 1428 1430 1433 1436 1439 1440 1442 1443 1443 1444 1445 1445 1445 1445 1445 1444 1444 1444 1444 1444 1445 1446 1447 1448 1450 1451 1452 1453 1454 1455
1459 1457 1452 1446 1443 1439 1436 1432 1429 1427 1426 1426 1426 1426 1427 1429 1432 1435 1438 1439 1441 1442 1443 1443 1444 1444 1444 1444 1444 1444 1444 1443 1443 1444 1444 1445 1446 1447 1448 1449 1450 1451 1452 1453
1448 1448 1445 1441 1438 1434 1432 1430 1427 1425 1424 1424 1424 1425 1426 1428 1431 1434 1437 1439 1440 1441 1442 1442 1443 1443 1443 1444 1444 1444 1443 1443 1443 1443 1444 1444 1445 1446 1447 1447 1448 1449 1450 1452
1441 1439 1437 1435 1432 1429 1427 1426 1424 1422 1421 1421 1422 1423 1424 1427 1430 1433 1435 1437 1438 1439 1440 1441 1442 1442 1443 1443 1443 1442 1443 1443 1443 1444 1444 1445 1445 1446 1447 1447 1448 1449 1450 1450
1435 1431 1430 1428 1426 1424 1423 1422 1421 1419 1418 1418 1419 1420 1423 1426 1429 1431 1434 1435 1436 1437 1438 1440 1440 1441 1441 1441 1441 1442 1442 1443 1444 1444 1445 1445 1446 1447 1447 1448 1448 1449 1450 1450
1424 1421 1421 1421 1420 1418 1417 1416 1416 1416 1415 1415 1416 1418 1421 1423 1426 1429 1431 1433 1435 1436 1437 1438 1439 1440 1440 1440 1441 1441 1442 1443 1444 1444 1445 1446 1447 1447 1448 1448 1449 1449 1450 1450
1414 1411 1410 1411 1412 1412 1412 1412 1412 1412 1412 1413 1414 1415 1417 1420 1423 1426 1429 1431 1432 1433 1435 1436 1438 1438 1439 1439 1440 1441 1442 1443 1444 1444 1445 1446 1447 1448 1448 1449 1449 1450 1450 1451
1408 1404 1403 1402 1403 1404 1405 1406 1407 1408 1408 1409 1410 1412 1415 1418 1421 1424 1426 1428 1430 1432 1434 1435 1436 1437 1438 1439 1440 1441 1442 1443 1444 1444 1445 1446 1447 1448 1449 1449 1450 1450 1451 1451
1404 1398 1395 1394 1395 1396 1398 1400 1401 1402 1403 1404 1406 1408 1411 1415 1418 1421 1424 1426 1428 1430 1432 1434 1436 1437 1437 1438 1439 1440 1442 1443 1443 1444 1445 1446 1447 1448 1449 1450 1450 1451 1451 1452
1400 1393 1388 1386 1387 1389 1391 1393 1395 1396 1398 1399 1401 1404 1408 1412 1415 1419 1421 1424 1426 1428 1430 1433 1434 1436 1437 1438 1439 1440 1441 1442 1443 1444 1445 1446 1447 1448 1449 1450 1450 1451 1452 1452
1398 1391 1384 1381 1382 1384 1386 1388 1390 1392 1393 1395 1397 1400 1404 1408 1412 1415 1419 1422 1424 1426 1429 1431 1433 1435 1436 1437 1439 1440 1441 1442 1443 1444 1445 1446 1447 1448 1449 1449 1450 1450 1451 1451
1396 1388 1382 1379 1379 1380 1382 1384 1386 1388 1389 1391 1394 1397 1401 1405 1410 1413 1417 1420 1422 1425 1428 1430 1432 1434 1435 1437 1439 1440 1441 1442 1443 1444 1445 1446 1446 1447 1448 1449 1449 1450 1450 1450
1396 1389 1382 1379 1378 1378 1380 1381 1383 1385 1386 1389 1392 1395 1399 1403 1407 1411 1415 1418 1420 1424 1426 1429 1431 1433 1435 1437 1439 1440 1441 1442 1443 1444 1444 1445 1446 1447 1447 1448 1448 1448 1448 1449
1396 1390 1384 1380 1378 1378 1378 1379 1381 1382 1384 1387 1390 1393 1397 1402 1406 1410 1413 1416 1419 1422 1425 1427 1430 1432 1435 1437 1439 1440 1442 1443 1444 1444 1445 1445 1446 1446 1447 1447 1447 1447 1447 1447
1394 1388 1382 1378 1376 1376 1377 1378 1379 1381 1383 1385 1388 1392 1396 1401 1405 1408 1412 1415 1418 1421 1424 1427 1429 1432 1435 1437 1439 1440 1442 1443 1444 1445 1446 1446 1446 1446 1446 1446 1446 1446 1446 1447